This is the latest recevied weather packets stored in our database for station/object CRYC. If no packets are shown the sender has not sent any weather packets the latest 10 day(s).
| Time | Temp. | Humidity | Pressure | Rain* | Wind** | Luminosity | Snow |
|---|---|---|---|---|---|---|---|
| 1777888791 | 11.11° C | - | - | 0 mm | 0.45 m/s, 152° | - | - |
| 1777888186 | 11.11° C | - | - | 0 mm | 0.89 m/s, 179° | - | - |
| 1777887565 | 11.11° C | - | - | 0 mm | 0.45 m/s, 96° | - | - |
| 1777886961 | 11.11° C | - | - | 0 mm | 0.89 m/s, 277° | - | - |
| 1777886354 | 11.11° C | - | - | 0 mm | 0 m/s | - | - |
| 1777885749 | 11.11° C | - | - | 0 mm | 1.34 m/s, 249° | - | - |
| 1777885140 | 11.11° C | - | - | 0 mm | 2.68 m/s, 210° | - | - |
| 1777883926 | 11.11° C | - | - | 0 mm | 0.89 m/s, 242° | - | - |
| 1777883321 | 10.56° C | - | - | 0 mm | 0 m/s | - | - |
| 1777882715 | 11.11° C | - | - | 0 mm | 1.79 m/s, 174° | - | - |
| 1777882109 | 11.11° C | - | - | 0 mm | 0.45 m/s, 228° | - | - |
| 1777881622 | 11.11° C | - | - | 0 mm | 1.34 m/s, 259° | - | - |
| 1777881500 | 11.11° C | - | - | 0 mm | 1.34 m/s, 259° | - | - |
| 1777880896 | 10.56° C | - | - | 0 mm | 0 m/s | - | - |
| 1777880290 | 10.56° C | - | - | 0 mm | 0.45 m/s, 248° | - | - |
| 1777879672 | 11.11° C | - | - | 0 mm | 2.24 m/s, 224° | - | - |
| 1777879066 | 11.11° C | - | - | 0 mm | 2.68 m/s, 266° | - | - |
| 1777878458 | 10.56° C | - | - | 0 mm | 0.89 m/s, 255° | - | - |
| 1777877846 | 11.11° C | - | - | 0 mm | 2.68 m/s, 255° | - | - |
| 1777877238 | 10.56° C | - | - | 0 mm | 1.79 m/s, 242° | - | - |
| 1777876633 | 10.56° C | - | - | 0 mm | 0 m/s | - | - |
| 1777876028 | 10.56° C | - | - | 0 mm | 3.13 m/s, 242° | - | - |
| 1777875421 | 10.56° C | - | - | 0 mm | 2.68 m/s, 259° | - | - |
| 1777874812 | 10.56° C | - | - | 0 mm | 2.68 m/s, 245° | - | - |
| 1777874204 | 10.56° C | - | - | 0 mm | 1.34 m/s, 194° | - | - |
* Rain latest hour (hover to see other rain measurements)
** Current wind speed in m/s (hover to see current wind gust speed)